Kaneohe MCBH, HI

4:12 PM HST on August 23, 2017 (GMT -1000)
Kaneohe Bay Marine Corps Air Facility

Weather History for PHNG - December, 2012

Change the Weather History Date:

Tuesday, December 18, 2012

  Actual Average Record
Temperature  
Mean Temperature 74 °F -  
Max Temperature 77 °F 76 °F 84 °F (2005)
Min Temperature 71 °F 67 °F 64 °F (1998)
Cooling Degree Days 9    
Growing Degree Days 24 (Base 50)    
Moisture  
Dew Point 69 °F    
Average Humidity 84    
Maximum Humidity 95    
Minimum Humidity 65    
Precipitation  
Precipitation 0.00 in - - ()
Sea Level Pressure  
Sea Level Pressure 30.09 in    
Wind  
Wind Speed 11 mph (East)    
Max Wind Speed 16 mph    
Max Gust Speed 31 mph    
Visibility 9 miles    
Events Rain    
Averages and records for this station are not official NWS values.
T = Trace of Precipitation, MM = Missing Value Source: NWS Daily Summary

Daily Weather History Graph

Daily Weather History Graph

Search for Another Location

Airport or City:

Trip Planner

Search our weather history database for the weather conditions in past years. The results will help you decide how hot, cold, wet, or windy it might be!

Date:

Astronomy

Dec. 18, 2012 Rise Set
Actual Time 7:03 AM HST 5:52 PM HST
Civil Twilight 6:38 AM HST 6:17 PM HST
Nautical Twilight 6:11 AM HST 6:45 PM HST
Astronomical Twilight 5:43 AM HST 7:12 PM HST
Moon 11:28 AM HST (12/18) 11:46 PM HST (12/18)
Length of Visible Light 11h 38m
Length of Day
10h 49m
Waxing Crescent, 36% of the Moon is Illuminated
Dec 18
Waxing Crescent
Dec 19
First Quarter
Dec 28
Full
Jan 4
Last Quarter
Jan 11
New

Hourly Weather History & Observations

Time (HST) Temp. Dew Point Humidity Pressure Visibility Wind Dir Wind Speed Gust Speed Precip Events Conditions
12:14 AM 73.4 °F 69.8 °F 88% 30.13 in 6.2 mi East 11.5 mph 29.9 mph N/A   Mostly Cloudy
12:57 AM 73.4 °F 69.1 °F 86% 30.11 in 10.0 mi East 13.8 mph 25.3 mph N/A Rain Heavy Rain
1:07 AM 73.4 °F 71.6 °F 94% 30.12 in 6.2 mi East 16.1 mph 31.1 mph N/A Rain Rain
1:57 AM 73.4 °F 72.0 °F 95% 30.10 in 10.0 mi ENE 9.2 mph 17.3 mph N/A Rain Rain
2:27 AM 71.6 °F 66.2 °F 83% 30.10 in 6.2 mi East 9.2 mph 20.7 mph N/A Rain Rain
2:50 AM 71.6 °F 66.2 °F 83% 30.10 in 6.2 mi East 11.5 mph 20.7 mph N/A Rain Rain
2:57 AM 71.6 °F 66.9 °F 85% 30.09 in 10.0 mi East 8.1 mph 20.7 mph N/A Rain Rain
3:57 AM 73.4 °F 68.0 °F 83% 30.07 in 10.0 mi ENE 9.2 mph - N/A Rain Rain
4:04 AM 73.4 °F 71.6 °F 94% 30.09 in 6.2 mi ENE 11.5 mph 17.3 mph N/A Rain Rain
4:57 AM 73.4 °F 71.1 °F 92% 30.08 in 10.0 mi East 9.2 mph 20.7 mph N/A Rain Rain
5:18 AM 73.4 °F 71.6 °F 94% 30.09 in 6.2 mi East 5.8 mph - N/A Rain Rain
5:57 AM 73.4 °F 71.1 °F 92% 30.08 in 10.0 mi East 11.5 mph 24.2 mph N/A Rain Rain
6:33 AM 73.4 °F 68.0 °F 83% 30.10 in 6.2 mi East 5.8 mph - N/A Rain Rain
6:57 AM 71.6 °F 68.0 °F 88% 30.09 in 10.0 mi East 10.4 mph 21.9 mph N/A Rain Rain
7:57 AM 73.4 °F 68.0 °F 83% 30.10 in 10.0 mi Variable 6.9 mph - N/A   Mostly Cloudy
8:57 AM 73.4 °F 68.0 °F 83% 30.12 in 10.0 mi ESE 8.1 mph 16.1 mph N/A   Mostly Cloudy
9:57 AM 75.2 °F 66.2 °F 73% 30.12 in 10.0 mi East 10.4 mph 19.6 mph N/A   Scattered Clouds
10:57 AM 77.7 °F 65.3 °F 65% 30.11 in 10.0 mi ESE 13.8 mph 19.6 mph N/A   Mostly Cloudy
11:57 AM 77.0 °F 68.0 °F 74% 30.09 in 10.0 mi ENE 11.5 mph 24.2 mph N/A   Overcast
12:57 PM 77.0 °F 68.7 °F 75% 30.06 in 10.0 mi East 9.2 mph 19.6 mph N/A   Mostly Cloudy
1:57 PM 77.0 °F 68.0 °F 74% 30.04 in 10.0 mi East 8.1 mph 18.4 mph N/A   Mostly Cloudy
2:57 PM 77.0 °F 68.0 °F 74% 30.04 in 10.0 mi ENE 11.5 mph 19.6 mph N/A   Mostly Cloudy
3:57 PM 77.0 °F 66.2 °F 69% 30.04 in 10.0 mi East 10.4 mph 23.0 mph N/A   Mostly Cloudy
4:57 PM 75.2 °F 66.9 °F 75% 30.04 in 10.0 mi East 12.7 mph 19.6 mph N/A   Mostly Cloudy
5:57 PM 73.8 °F 67.3 °F 80% 30.05 in 10.0 mi East 9.2 mph 17.3 mph N/A   Mostly Cloudy
6:27 PM 73.4 °F 68.0 °F 83% 30.07 in 10.0 mi ENE 10.4 mph 19.6 mph N/A   Overcast
6:34 PM 73.4 °F 68.0 °F 83% 30.07 in 10.0 mi East 10.4 mph 17.3 mph N/A   Overcast
6:57 PM 73.4 °F 68.0 °F 83% 30.06 in 10.0 mi ENE 9.2 mph 19.6 mph N/A   Overcast
7:57 PM 73.4 °F 69.1 °F 86% 30.08 in 10.0 mi East 9.2 mph 16.1 mph N/A   Mostly Cloudy
8:19 PM - - N/A% 30.09 in 10.0 mi East 8.1 mph 16.1 mph N/A   Overcast
8:57 PM 72.7 °F 69.1 °F 88% 30.08 in 10.0 mi Variable 6.9 mph - N/A   Mostly Cloudy
9:30 PM 71.6 °F 69.8 °F 94% 30.10 in 6.2 mi East 9.2 mph 18.4 mph N/A   Mostly Cloudy
9:52 PM 71.6 °F 69.8 °F 94% 30.10 in 6.2 mi East 8.1 mph 23.0 mph N/A   Overcast
9:57 PM 72.3 °F 69.1 °F 89% 30.09 in 10.0 mi East 10.4 mph 24.2 mph N/A   Mostly Cloudy
10:21 PM 73.4 °F 69.8 °F 88% 30.11 in 6.2 mi East 12.7 mph 20.7 mph N/A   Mostly Cloudy
10:57 PM 72.7 °F 69.1 °F 88% 30.09 in 10.0 mi ENE 13.8 mph 20.7 mph N/A   Overcast
11:10 PM 71.6 °F 68.0 °F 88% 30.10 in 6.2 mi East 8.1 mph - N/A   Mostly Cloudy
11:57 PM 72.1 °F 68.0 °F 87% 30.09 in 10.0 mi ENE 9.2 mph - N/A   Mostly Cloudy